#timestamp,LO_Frequency,Hit,StdDev 
1565042415.8,286046999.0,N
1565042435.6,286046998.7,N
1565042455.5,286047000.9,N
1565042475.3,286046999.9,N
1565042495.1,286047001.1,N
1565042545.9,286047000.2,E
1565042555.8,286047001.1,N
1565042575.7,286046998.4,P
1565042595.5,286046998.5,N
1565042615.4,286046998.1,N
1565042635.2,286047000.9,N
1565042655.0,286047001.1,N
1565042655.9,286047001.1,N
1565042675.8,286046998.7,N
1565042695.6,286046998.5,N
1565042715.4,286046998.7,N
1565042735.3,286046999.4,N
1565042755.1,286046996.5,N
1565042775.9,286046997.0,N
1565042795.7,286046997.3,N
1565042815.5,286046996.9,N
1565042835.4,286046997.9,N
1565042855.2,286046997.8,N
1565042875.0,286046997.5,N
1565042876.0,286046997.5,N
1565042895.8,286046997.8,N
1565042915.6,286046997.6,N
1565042935.5,286046996.1,N
1565042955.3,286046998.0,N
1565042975.1,286046997.8,N
1565042995.9,286046995.4,Y
1565043015.7,286046996.5,P
1565043035.6,286046997.1,P
1565043055.4,286046997.8,N
1565043075.2,286046995.1,Y
1565043095.1,286046999.9,P
1565043096.0,286046999.9,N
1565043115.8,286046999.8,N
1565043135.7,286047000.1,N
1565043155.5,286047000.0,N
1565043175.3,286047001.2,N
1565043195.2,286047000.7,N
1565043215.0,286047000.2,N
1565043215.9,286047000.2,N
1565043235.7,286047002.3,N
1565043255.6,286046999.8,N
1565043275.4,286047000.2,N
1565043295.3,286047000.2,N
1565043315.1,286047000.6,N
1565043316.0,286047000.6,N
1565043335.8,286047001.0,N
1565043355.7,286047000.8,N
1565043375.5,286046998.4,N
1565043395.4,286047001.0,N
1565043415.2,286046998.6,N
1565043435.0,286047000.4,N
1565043435.9,286047000.4,N
1565043455.8,286047000.2,N
1565043475.6,286047000.9,N
1565043495.4,286046999.4,N
1565043515.3,286047000.7,N
1565043535.1,286047001.1,N
1565043555.9,286046997.4,N
1565043575.7,286046999.6,N
1565043595.5,286046999.0,N
1565043615.4,286046999.5,N
1565043635.2,286046998.7,N
1565043655.1,286046997.4,N
1565043656.0,286046997.4,N
1565043675.8,286046996.7,N
1565043695.6,286046999.6,N
1565043715.5,286046998.5,N
1565043735.3,286046998.1,N
1565043755.2,286046998.1,N
1565043775.9,286047000.7,N
1565043795.7,286047001.2,N
1565043815.6,286046998.3,N
1565043835.4,286047000.4,N
1565043855.2,286046998.6,N
1565043875.1,286046998.1,N
1565043876.0,286046998.1,N
1565043895.8,286046998.5,N
1565043915.7,286047001.0,N
1565043935.5,286047000.3,N
1565043955.3,286046999.7,N
1565043975.2,286047002.6,N
1565043995.0,286046999.7,N
1565043995.9,286046999.7,N
1565044015.8,286047000.1,N
1565044035.6,286047002.7,N
1565044055.4,286047000.1,N
1565044075.3,286046999.9,N
1565044095.1,286047001.1,N
1565044115.9,286047001.1,N
1565044135.7,286047000.4,N
1565044155.5,286046999.8,N
1565044175.4,286047002.5,N
1565044195.2,286047004.3,N
1565044215.0,286047002.8,N
1565044215.9,286047002.8,N
1565044235.8,286047000.2,N
1565044255.6,286047000.9,N
1565044275.5,286047000.4,N
1565044295.3,286047000.1,N
1565044315.1,286046999.9,N
1565044335.9,286046999.3,N
1565044355.7,286046998.2,N
1565044375.6,286047000.6,N
1565044395.4,286047000.2,N
1565044415.2,286047002.7,N
1565044435.1,286047002.7,N
1565044436.0,286047002.7,N
1565044455.8,286047002.3,N
1565044475.7,286047001.9,N
1565044495.5,286047004.0,N
1565044515.3,286047002.0,N
1565044535.2,286047001.3,N
1565044555.0,286047002.4,N
1565044555.9,286047002.4,N
1565044575.8,286046999.9,N
1565044595.6,286046998.1,N
1565044615.4,286047002.3,N
1565044635.3,286047002.4,N
1565044655.1,286047002.8,N
1565044675.8,286046999.9,N
1565044695.7,286047000.1,N
1565044715.5,286047002.6,N
1565044735.4,286047002.5,N
1565044755.2,286047002.3,N
1565044775.0,286047001.6,N
1565044775.9,286047001.6,N
1565044795.8,286047002.1,N
1565044815.6,286047000.2,N
1565044835.5,286047000.4,N
1565044855.3,286046999.9,N
1565044875.1,286047001.8,N
1565044895.9,286047002.0,N
1565044915.7,286047002.8,N
1565044935.6,286046999.8,N
1565044955.4,286047002.0,N
1565044975.2,286047001.3,N
1565044995.1,286047002.2,N
1565044996.0,286047002.2,N
1565045015.8,286047002.2,N
1565045035.6,286047001.4,N
1565045055.5,286047001.3,N
1565045075.3,286047001.4,N
1565045095.2,286047003.9,Y
1565045115.9,286047000.1,P
1565045135.7,286047000.0,N
1565045155.6,286046999.8,N
1565045175.4,286047002.3,Y
1565045195.3,286047000.3,P
1565045215.1,286047000.9,P
1565045235.8,286047002.3,P
1565045255.7,286047000.1,N
1565045275.5,286047002.7,Y
1565045295.4,286047000.9,P
1565045315.2,286047000.5,P
1565045335.0,286047000.0,N
1565045335.9,286047000.0,N
1565045355.8,286047002.8,Y
1565045375.6,286047000.0,P
1565045395.5,286047000.3,N
1565045415.3,286046999.8,N
1565045435.1,286047000.2,N
1565045455.9,286047000.9,Y
1565045475.7,286046999.9,P
1565045495.6,286047000.3,N
1565045515.4,286047000.6,P
1565045535.2,286047001.1,Y
1565045555.1,286046998.2,P
1565045556.0,286046998.2,N
1565045575.8,286047000.6,N
1565045595.6,286047000.8,N
1565045615.5,286047000.6,N
1565045635.3,286047001.1,N
1565045655.2,286047001.2,N
1565045675.0,286047001.1,N
1565045675.9,286047001.1,N
1565045695.7,286047000.8,N
1565045715.6,286047000.7,N
1565045735.4,286047000.7,N
1565045755.3,286047001.2,N
1565045775.1,286047002.8,N
1565045795.8,286047001.6,N
1565045815.7,286047002.5,N
1565045835.5,286047000.1,N
1565045855.4,286046999.7,N
1565045875.2,286047000.3,N
1565045895.0,286047002.8,N
1565045895.9,286047002.8,N
1565045915.8,286047001.7,N
1565045935.6,286047000.0,N
1565045955.4,286047000.5,N
1565045975.3,286047000.9,N
1565045995.1,286047000.4,N
